When you browse on this site, cookies collect data to enhance your experience and personalize the content and advertising you see.
Visit our Privacy Policy to learn more. By continuing to use the site, you agree to this use of cookies and data.
  • In Hungary
  • List of Countries
  • For 7 days
  • Water Temperature
  • Weather Map
  • News
  • Weather Widgets
  • user-avatar
    Login

    Hourly Weather Cankuzo

    Today, 11 November, Monday

    Time Temperature Precipitation Wind Pressure Humidity
    00:00 +16°C° 0.8 mm 0 mps 628 mmHg 91%
    01:00 +16°C° 0.8 mm 0 mps 628 mmHg 93%
    02:00 +16°C° 0 mm 0 mps 628 mmHg 92%
    03:00 +15°C° 0.1 mm 0 mps 628 mmHg 92%
    04:00 +15°C° 0.1 mm 0 mps 628 mmHg 92%
    05:00 +15°C° 0.1 mm 0 mps 628 mmHg 92%
    06:00 +17°C° 0.1 mm 0 mps 629 mmHg 89%
    07:00 +20°C° 0.1 mm 1 mps 630 mmHg 85%
    08:00 +21°C° 0 mm 1 mps 631 mmHg 84%
    09:00 +22°C° 0.5 mm 1 mps 630 mmHg 82%
    10:00 +23°C° 0.5 mm 2 mps 630 mmHg 79%
    11:00 +24°C° 0.5 mm 2 mps 630 mmHg 76%
    12:00 +24°C° 1 mm 2 mps 629 mmHg 74%
    13:00 +25°C° 1 mm 2 mps 629 mmHg 72%
    14:00 +26°C° 0 mm 3 mps 629 mmHg 66%
    15:00 +25°C° 1.1 mm 2 mps 628 mmHg 72%
    16:00 +24°C° 1.1 mm 1 mps 628 mmHg 78%
    17:00 +23°C° 1.1 mm 1 mps 628 mmHg 84%
    18:00 +22°C° 0.3 mm 1 mps 628 mmHg 85%
    19:00 +21°C° 0.3 mm 1 mps 628 mmHg 86%
    20:00 +19°C° 0.3 mm 1 mps 628 mmHg 88%
    21:00 +17°C° 0.6 mm 0 mps 628 mmHg 89%
    22:00 +17°C° 0.6 mm 0 mps 628 mmHg 90%
    23:00 +16°C° 0.6 mm 0 mps 628 mmHg 91%

    Tomorrow, 12 November, Tuesday

    Time Temperature Precipitation Wind Pressure Humidity
    00:00 +16°C° 0.6 mm 0 mps 627 mmHg 91%
    01:00 +16°C° 0.6 mm 0 mps 627 mmHg 92%
    02:00 +16°C° 0.6 mm 0 mps 627 mmHg 92%
    03:00 +16°C° 0.2 mm 0 mps 627 mmHg 92%
    04:00 +16°C° 0.2 mm 0 mps 627 mmHg 92%
    05:00 +16°C° 0.2 mm 0 mps 627 mmHg 91%
    06:00 +17°C° 0.1 mm 0 mps 628 mmHg 88%
    07:00 +19°C° 0.1 mm 0 mps 629 mmHg 84%
    08:00 +20°C° 0.1 mm 0 mps 630 mmHg 81%
    09:00 +23°C° 0.8 mm 1 mps 630 mmHg 77%
    10:00 +24°C° 0.8 mm 2 mps 630 mmHg 74%
    11:00 +25°C° 0.8 mm 2 mps 630 mmHg 70%
    12:00 +26°C° 0.3 mm 2 mps 630 mmHg 68%
    13:00 +26°C° 0.3 mm 2 mps 629 mmHg 67%
    14:00 +26°C° 0.3 mm 2 mps 629 mmHg 65%
    15:00 +25°C° 1.1 mm 1 mps 628 mmHg 71%
    16:00 +24°C° 1.1 mm 1 mps 628 mmHg 77%
    17:00 +22°C° 1.1 mm 0 mps 627 mmHg 83%
    18:00 +20°C° 0.1 mm 0 mps 627 mmHg 84%
    19:00 +21°C° 0.1 mm 1 mps 628 mmHg 86%
    20:00 +19°C° 0.1 mm 1 mps 628 mmHg 87%
    21:00 +19°C° 0 mm 1 mps 628 mmHg 88%
    22:00 +19°C° 0 mm 1 mps 628 mmHg 88%
    23:00 +18°C° 0 mm 1 mps 628 mmHg 89%

    Day after tomorrow, 13 November, Wednesday

    Time Temperature Precipitation Wind Pressure Humidity
    00:00 +18°C° 0 mm 1 mps 627 mmHg 89%
    01:00 +18°C° 0 mm 1 mps 627 mmHg 90%
    02:00 +18°C° 0 mm 1 mps 627 mmHg 91%
    03:00 +16°C° 0.1 mm 0 mps 627 mmHg 90%
    04:00 +16°C° 0.1 mm 0 mps 628 mmHg 90%
    05:00 +17°C° 0.1 mm 0 mps 628 mmHg 90%
    06:00 +18°C° 0.1 mm 0 mps 629 mmHg 85%
    07:00 +20°C° 0.1 mm 0 mps 630 mmHg 81%
    08:00 +21°C° 0.1 mm 0 mps 631 mmHg 76%
    09:00 +25°C° 0.1 mm 1 mps 631 mmHg 69%
    10:00 +26°C° 0.1 mm 1 mps 631 mmHg 62%
    11:00 +27°C° 0.1 mm 2 mps 631 mmHg 54%
    12:00 +28°C° 0 mm 2 mps 630 mmHg 54%
    13:00 +28°C° 0 mm 2 mps 630 mmHg 53%
    14:00 +28°C° 0 mm 3 mps 629 mmHg 53%
    15:00 +27°C° 0.1 mm 2 mps 629 mmHg 58%
    16:00 +26°C° 0.1 mm 1 mps 628 mmHg 64%
    17:00 +23°C° 0.1 mm 0 mps 628 mmHg 69%
    18:00 +24°C° 0 mm 1 mps 628 mmHg 74%
    19:00 +22°C° 0 mm 1 mps 628 mmHg 79%
    20:00 +20°C° 0 mm 1 mps 628 mmHg 83%
    21:00 +20°C° 0 mm 1 mps 628 mmHg 84%
    22:00 +19°C° 0 mm 1 mps 628 mmHg 85%
    23:00 +19°C° 0 mm 1 mps 628 mmHg 86%

    14 November, Thursday

    Time Temperature Precipitation Wind Pressure Humidity
    00:00 +18°C° 0 mm 1 mps 628 mmHg 87%
    01:00 +18°C° 0 mm 1 mps 628 mmHg 88%
    02:00 +18°C° 0 mm 1 mps 627 mmHg 89%
    03:00 +15°C° 0.1 mm 0 mps 628 mmHg 90%
    04:00 +15°C° 0.1 mm 0 mps 628 mmHg 92%
    05:00 +15°C° 0.1 mm 0 mps 628 mmHg 93%
    06:00 +17°C° 0.4 mm 0 mps 629 mmHg 89%
    07:00 +19°C° 0.4 mm 0 mps 631 mmHg 84%
    08:00 +21°C° 0.4 mm 0 mps 632 mmHg 79%
    09:00 +23°C° 1.5 mm 1 mps 632 mmHg 77%
    10:00 +24°C° 1.5 mm 1 mps 631 mmHg 75%
    11:00 +25°C° 1.5 mm 2 mps 631 mmHg 74%
    12:00 +24°C° 2.3 mm 2 mps 630 mmHg 77%
    13:00 +23°C° 2.3 mm 2 mps 630 mmHg 81%
    14:00 +21°C° 2.3 mm 2 mps 629 mmHg 85%
    15:00 +21°C° 0.9 mm 2 mps 629 mmHg 87%
    16:00 +21°C° 0.9 mm 1 mps 628 mmHg 90%
    17:00 +19°C° 0.9 mm 0 mps 628 mmHg 92%
    18:00 +18°C° 0.4 mm 0 mps 629 mmHg 92%
    19:00 +17°C° 0.4 mm 0 mps 629 mmHg 92%
    20:00 +17°C° 0.4 mm 0 mps 630 mmHg 92%
    21:00 +17°C° 0.3 mm 0 mps 630 mmHg 91%
    22:00 +16°C° 0.3 mm 0 mps 630 mmHg 90%
    23:00 +16°C° 0.3 mm 0 mps 630 mmHg 90%

    15 November, Friday

    Time Temperature Precipitation Wind Pressure Humidity
    00:00 +16°C° 0 mm 0 mps 629 mmHg 90%
    01:00 +16°C° 0 mm 0 mps 629 mmHg 91%
    02:00 +18°C° 0 mm 1 mps 628 mmHg 92%
    03:00 +18°C° 0 mm 1 mps 628 mmHg 92%
    04:00 +18°C° 0 mm 1 mps 629 mmHg 92%
    05:00 +18°C° 0 mm 1 mps 629 mmHg 93%
    06:00 +19°C° 0.1 mm 1 mps 630 mmHg 89%
    07:00 +18°C° 0.1 mm 0 mps 631 mmHg 86%
    08:00 +20°C° 0.1 mm 0 mps 632 mmHg 82%
    09:00 +21°C° 0.9 mm 1 mps 631 mmHg 85%
    10:00 +20°C° 0.9 mm 2 mps 631 mmHg 87%
    11:00 +19°C° 0.9 mm 2 mps 630 mmHg 89%
    12:00 +20°C° 0.3 mm 2 mps 630 mmHg 87%
    13:00 +20°C° 0.3 mm 2 mps 629 mmHg 85%
    14:00 +20°C° 0.3 mm 2 mps 628 mmHg 83%
    15:00 +21°C° 0.1 mm 1 mps 628 mmHg 84%
    16:00 +21°C° 0.1 mm 1 mps 628 mmHg 84%
    17:00 +19°C° 0.1 mm 0 mps 628 mmHg 84%
    18:00 +18°C° 0 mm 0 mps 628 mmHg 87%
    19:00 +17°C° 0 mm 0 mps 628 mmHg 90%
    20:00 +16°C° 0 mm 0 mps 628 mmHg 93%
    21:00 +16°C° 0 mm 0 mps 628 mmHg 93%
    22:00 +16°C° 0 mm 0 mps 628 mmHg 93%
    23:00 +15°C° 0 mm 0 mps 628 mmHg 93%

    16 November, Saturday

    Time Temperature Precipitation Wind Pressure Humidity
    00:00 +15°C° 0 mm 0 mps 628 mmHg 93%
    01:00 +15°C° 0 mm 0 mps 627 mmHg 93%
    02:00 +15°C° 0 mm 1 mps 627 mmHg 93%
    03:00 +15°C° 0 mm 1 mps 627 mmHg 92%
    04:00 +15°C° 0 mm 1 mps 627 mmHg 92%
    05:00 +15°C° 0 mm 1 mps 627 mmHg 92%
    06:00 +18°C° 0 mm 1 mps 628 mmHg 86%
    07:00 +20°C° 0 mm 1 mps 629 mmHg 79%
    08:00 +22°C° 0 mm 1 mps 630 mmHg 73%
    09:00 +24°C° 0.1 mm 1 mps 631 mmHg 67%
    10:00 +26°C° 0.1 mm 2 mps 631 mmHg 61%
    11:00 +27°C° 0.1 mm 2 mps 631 mmHg 55%
    12:00 +27°C° 0.4 mm 2 mps 630 mmHg 58%
    13:00 +27°C° 0.4 mm 2 mps 629 mmHg 60%
    14:00 +26°C° 0.4 mm 2 mps 628 mmHg 63%
    15:00 +25°C° 1.1 mm 2 mps 628 mmHg 69%
    16:00 +24°C° 1.1 mm 1 mps 628 mmHg 75%
    17:00 +24°C° 1.1 mm 1 mps 627 mmHg 81%
    18:00 +22°C° 0.2 mm 1 mps 627 mmHg 83%
    19:00 +21°C° 0.2 mm 1 mps 627 mmHg 84%
    20:00 +17°C° 0.2 mm 0 mps 628 mmHg 86%
    21:00 +17°C° 0.1 mm 0 mps 628 mmHg 87%
    22:00 +16°C° 0.1 mm 0 mps 628 mmHg 88%
    23:00 +16°C° 0.1 mm 0 mps 628 mmHg 89%
    Show more